Regional Weather Roundup
Issued by NWS

Home | Current Version | Previous Version | Text Only | Print | Product List | Glossary Off
Versions: 1 2 3 4 5 6 7 8 9 10 11 12 13 14 15 16 17 18 19 20 21 22 23 24 25 26 27 28 29 30 31 32 33 34 35 36 37 38 39 40 41 42 43 44 45 46 47 48 49 50

188
ASUS44 KJAN 170903
RWRMS

MISSISSIPPI HOURLY WEATHER ROUNDUP
NATIONAL WEATHER SERVICE JACKSON MS
400 AM CDT THU APR 17 2014

NOTE: "FAIR: INDICATES FEW OR NO CLOUDS BELOW 12,000 FEET WITH NO
SIGNIFICANT WEATHER AND/OR OBSTRUCTIONS TO VISIBILITY.

MSZ001>002-007>008-010>013-018>021-025>028-034>036-171000-
NORTHWEST MISSISSIPPI

CITY           SKY/WX    TMP DP  RH WIND       PRES   REMARKS
CLARKSDALE       N/A     45  39  81 CALM      30.20S
CLEVELAND      FAIR      46  41  83 CALM      30.19R
GREENWOOD      CLEAR     42  38  85 CALM      30.19S
GREENVILLE     CLEAR     42  39  89 CALM      30.18R
GRENADA        FAIR      37  36  93 CALM      30.21S
OLIVE BRANCH   CLEAR     43  36  75 CALM      30.21S
OXFORD         FAIR      43  34  70 SE3       30.22S
TUNICA         SUNNY     41  37  87 CALM      30.22R
$$

MSZ003>006-009-014>017-022>024-029>033-037>039-171000-
NORTHEAST MISSISSIPPI

CITY           SKY/WX    TMP DP  RH WIND       PRES   REMARKS
BELMONT        FAIR      47  36  64 SE3       30.25R
COLUMBUS AFB   CLEAR     42  38  84 SE6       30.24R
CORINTH        FAIR      39  36  87 SE3       30.24R
GOLDN TRIANGLE CLEAR     50  36  57 SE12      30.26R
STARKVILLE     FAIR      45  37  76 E6        30.22S
TUPELO         CLEAR     42  38  85 CALM      30.23R
$$

MSZ040-058-171000-
CENTRAL MISSISSIPPI

CITY           SKY/WX    TMP DP  RH WIND       PRES   REMARKS
JACKSON INTL   CLEAR     42  39  89 CALM      30.18S
JACKSON HAWKNS CLEAR     45  39  79 CALM      30.18S
MERIDIAN KEY   CLEAR     40  38  93 CALM      30.21S
MERIDIAN NAS   CLEAR     42  38  85 E3        30.23R
RAYMOND        HAZE      39  36  87 MISG      30.18S VSB 1/2
VICKSBURG      CLEAR     48  44  86 SE3       30.18S
$$

MSZ059>079-171000-
SOUTH MISSISSIPPI

CITY           SKY/WX    TMP DP  RH WIND       PRES   REMARKS
BROOKHAVEN     FAIR      39  39 100 CALM      30.17S
COLUMBIA       FAIR      39  39 100 MISG      30.16R
HATTIESBURG    CLEAR     42  41  96 CALM      30.19S
MCCOMB         PTCLDY    44  41  89 CALM      30.16R
NATCHEZ        MOCLDY    45  39  81 CALM      30.16R
PINE BELT      CLEAR     43  39  87 CALM      30.18S
$$

MSZ080>082-171000-
COASTAL MISSISSIPPI

CITY           SKY/WX    TMP DP  RH WIND       PRES   REMARKS
BILOXI         NOT AVBL
PASCAGOULA     CLOUDY    50  48  93 NE6       30.15F
GULFPORT       CLOUDY    53  47  79 NE5       30.14S
$$



USA.gov is the U.S. government's official web portal to all federal, state and local government web resources and services.